www.pogodaiklimat.ru

Погода и климат >> Архив погоды >> Иран >> Nehbandan


ПОГОДА в Nehbandan

  • Прогноз погоды в Nehbandan
  • Монитор погоды в Nehbandan
  • Климат города

АРХИВ ПОГОДЫ в Nehbandan

Время (UTC), дата Ветер
(напр.,м/с)
 
Видим.   Явления Облачность Т
(С)
Тd
(С)
f
(%)
Тe
(С)
Тes
(С)
Комфортность P
(гПа)
Po
(гПа)
Тmin
(С)
Tmax
(С)
R
(мм)
R24
(мм)
S
(см)
00 20.07 С 8 12 км ясно +25.5 -8.8 10 +23 +23 комфорт 996.3 873.5
03 20.07 С 8 20 км ясно +26.7 -6.0 11 +24 +24 комфорт 997.5 874.2 +25.0
06 20.07 В 3 20 км ясно +31.9 -6.9 8 +28 +42 жарко 997.8 874.6
09 20.07 штиль 0 20 км ясно +35.4 -12.9 4 +31 +58 опасность
солнечного
удара
996.2 873.4
12 20.07 штиль 0 20 км ясно +37.4 -15.8 3 +33 +43 жарко 994.5 872.1
15 20.07 СЗ 3 18 км ясно +34.2 -15.0 4 +29 +29 жарко 994.1 871.4 +37.8
18 20.07 С 7 15 км ясно +30.0 -8.3 8 +26 +26 жарко 996.1 873.4
21 20.07 СЗ 5 15 км ясно +26.9 -6.4 11 +24 +24 комфорт 995.7 873.2
00 21.07 штиль 0 15 км ясно +22.3 -5.2 15 +21 +21 комфорт 996.9 873.7
03 21.07 СЗ 3 20 км ясно +26.1 -5.2 12 +23 +26 комфорт 998.1 874.9 +21.5
06 21.07 С 5 20 км ясно +32.2 -7.7 7 +28 +37 жарко 997.6 874.8
09 21.07 СВ 2 20 км ясно +36.0 -10.6 5 +31 +52 опасность
солнечного
удара
996.5 873.9
12 21.07 ЮЗ 2 20 км ясно +38.3 -19.3 2 +33 +41 жарко 995.9 872.9
15 21.07 С 3 20 км ясно +34.8 -11.6 5 +30 +30 жарко 995.5 872.7 +38.5
18 21.07 С 6 15 км ясно +30.1 -7.3 8 +26 +26 жарко 996.7 874.0
21 21.07 СЗ 4 15 км ясно +27.6 -7.0 10 +24 +24 комфорт 996.2 873.8
00 22.07 СЗ 4 15 км ясно +26.4 -6.4 11 +24 +24 комфорт 996.3 874.1
03 22.07 С 7 20 км ясно +28.1 -6.0 10 +25 +26 комфорт 997.6 874.9 +26.1
06 22.07 С 5 15 км ясно +32.5 -7.8 7 +28 +37 жарко 998.1 875.3
09 22.07 В 2 18 км ясно +36.8 -10.7 4 +32 +52 опасность
солнечного
удара
997.2 874.8
12 22.07 С 7 18 км ясно +37.7 -13.8 3 +33 +35 жарко 996.1 873.8
15 22.07 С 5 15 км ясно +34.3 -10.8 5 +30 +30 жарко 996.2 873.6 +37.9
18 22.07 С 13 12 км ясно +30.2 -9.6 7 +26 +26 жарко 997.2 874.5
21 22.07 С 14 12 км ясно +27.9 -5.0 11 +25 +25 комфорт 995.9 873.8
00 23.07 С 7 12 км ясно +26.8 -5.7 11 +24 +24 комфорт 996.2 874.0
03 23.07 С 10 20 км ясно +28.6 -6.0 10 +25 +25 комфорт 997.8 875.1 +26.4
06 23.07 С 4 15 км ясно +33.5 -7.2 7 +29 +41 жарко 997.9 875.3
09 23.07 З 2 18 км ясно +37.5 -15.3 3 +33 +53 опасность
солнечного
удара
996.2 874.1
12 23.07 В 3 20 км ясно +37.9 -21.8 2 +33 +39 жарко 995.0 872.9
15 23.07 С 5 20 км ясно +35.0 -13.2 4 +30 +30 жарко 994.9 872.6 +38.8
18 23.07 С 6 15 км ясно +30.8 -7.9 8 +27 +27 жарко 996.4 874.1
21 23.07 С 10 15 км ясно +28.7 -5.1 11 +25 +25 комфорт 995.4 873.6
00 24.07 С 5 15 км ясно +27.1 -4.2 12 +24 +24 комфорт 995.3 873.3
03 24.07 С 7 20 км ясно +28.5 -4.2 12 +25 +26 комфорт 996.5 874.1 +26.4
06 24.07 С 5 18 км ясно +32.3 -6.6 8 +28 +37 жарко 996.7 874.2
09 24.07 З 3 15 км ясно +36.1 -12.6 4 +31 +48 жарко 995.5 873.4
12 24.07 С 3 14 км ясно +37.3 -15.3 3 +32 +39 жарко 994.2 872.1
15 24.07 С 5 16 км ясно +34.5 -15.3 3 +30 +30 жарко 994.2 871.9 +38.1
18 24.07 С 6 16 км ясно +30.7 -7.5 8 +27 +27 жарко 995.2 872.8
21 24.07 С 6 16 км ясно +28.9 -3.5 12 +26 +26 жарко 995.2 873.3
00 25.07 С 6 16 км ясно +27.8 -2.3 14 +25 +25 комфорт 994.3 872.5
03 25.07 С 7 18 км ясно +28.9 -3.0 12 +26 +27 жарко 995.2 873.0 +26.8
06 25.07 С 4 18 км ясно +33.2 -7.0 7 +29 +40 жарко 995.9 873.6
09 25.07 В 2 20 км ясно +36.3 -12.3 4 +32 +52 опасность
солнечного
удара
994.4 872.5
12 25.07 СВ 3 20 км ясно +37.9 -16.8 2 +33 +39 жарко 993.0 871.3
15 25.07 С 3 20 км ясно +35.1 -16.9 3 +30 +30 жарко 993.5 871.4 +38.3
18 25.07 С 6 15 км ясно +31.8 -6.0 8 +28 +28 жарко 994.9 873.0
21 25.07 С 5 15 км ясно +29.9 -6.2 9 +26 +26 жарко 994.2 872.6
00 26.07 С 4 15 км ясно +28.6 -6.5 10 +25 +25 комфорт 993.8 872.3
03 26.07 З 2 20 км ясно +29.8 -6.6 9 +26 +29 жарко 996.2 874.1 +25.2
06 26.07 С 5 20 км ясно +33.9 -8.9 6 +29 +38 жарко 996.3 874.3
09 26.07 С 4 20 км ясно +37.1 -13.4 3 +32 +46 жарко 994.5 872.9
12 26.07 СЗ 4 20 км ясно +38.3 -19.1 2 +33 +38 жарко 993.3 871.8
15 26.07 штиль 0 20 км ясно +35.8 -14.3 3 +31 +31 жарко 993.6 871.8 +39.0
18 26.07 штиль 0 15 км ясно +29.8 -5.9 9 +26 +26 жарко 995.4 873.2
21 26.07 С 6 15 км ясно +31.0 -8.4 7 +27 +27 жарко 994.8 873.4

 

Местоположение метеостанции Nehbandan (Иран): широта 31.53 долгота 60.03 высота над уровнем моря 1211 м.

В архиве по умолчанию представлена погода в Nehbandan за последнюю неделю. Архивные данные за месяц целиком и за предыдущие месяцы, начиная с января 2011 года, Вы можете получить, выбрав интересующий диапазон дат из раскрывающегося списка и нажав кнопку "Ввод!".

Внимание! Время в таблицах - всемирное. Для получения местного времени необходимо прибавить поправку, которая в Nehbandan равна 3.5 ч.

Смотрите также архив погоды в соседних городах и на ближайших метеорологических станциях:

Погода в Zabol (Иран) (148 км)
Погода в Birjand (Иран) (168 км)
Погода в Zahedan (Иран) (243 км)
Погода в Bam (Иран) (312 км)
Погода в Kerman (Иран) (325 км)
Погода в Ferdous (Иран) (327 км)
Погода в Heart (Афганистан) (362 км)
Погода в Tabas (Иран) (371 км)
Погода в Nokkundi (Пакистан) (399 км)
Погода в Baft (Иран) (419 км)

Пояснения к столбцам:

Ветер - указаны скорость ветра в м/с - средняя за 10 мин, порывы в срок и между сроками (в фигурных скобках) и направление, откуда дует ветер: С - северный, СВ - северо-восточный, В - восточный, ЮВ - юго-восточный, Ю - южный, ЮЗ - юго-западный, З - западный, СЗ - северо-западный.
Видимость - горизонтальная дальность видимости в метрах или километрах. При видимости от 1 до 10 км при отсутствии осадков обычно наблюдается дымка, при ухудшении видимости до 1 км и менее - туман. В сухую погоду видимость может ухудшаться дымом, пылью или мглою.
Явления - указаны атмосферные явления, наблюдавшиеся в срок или в последний час перед сроком; фигурными скобками обозначены явления, наблюдавшиеся между сроками (за 1-3 часа до срока); квадратными скобками обозначены град или гололедные отложения с указанием их диаметра в мм.
Облачность - указаны через наклонную черту общая и нижняя облачность в баллах и высота нижней границы облаков в метрах; квадратными скобками обозначены формы облаков: Ci - перистые, Cs - перисто-слоистые, Cc - перисто-кучевые, Ac - высококучевые, As - высокослоистые, Sc - слоисто-кучевые, Ns - слоисто-дождевые, Cu - кучевые, Cb - кучево-дождевые. Подробнее классификацию облаков см. в Атласе облаков (PDF).
T - Температура воздуха - температура, измеренная на высоте 2 м над землей.
Td - Температура точки росы - температура, при понижении до которой содержащийся в воздухе водяной пар достигнет насыщения.
f - Относительная влажность воздуха - влажноcть воздуха, измеренная на высоте 2 м над землей.
Te - Эффективная температура - температура, которую ощущает одетый по сезону человек в тени. Характеристика душности погоды. При расчете учитывается влияние влажности воздуха и скорости ветра на теплоощущения человека.
Tes - Эффективная температура на солнце - температура, которую ощущает человек, с поправкой на солнечный нагрев. Характеристика знойности погоды. Зависит от высоты солнца над горизонтом, облачности и скорости ветра. Ночью, в пасмурную погоду, а также при ветре 12 м/с и более поправка равна нулю.
P - Атмосферное давление - приведенное к уровню моря атмосферное давление.
Po - Атмосферное давление - измеренное на уровне метеостанции атмосферное давление.
Tmin - Минимальная температура - минимум температуры воздуха на высоте 2 м над землей.
Tmax - Максимальная температура - максимум температуры воздуха на высоте 2 м над землей.
R - Количество осадков - Количество выпавших осадков за период времени, мм. При наведении курсора мыши на число - период времени, за который выпало указанное количество осадков.
R24 - Количество осадков - Количество выпавших осадков за 24 часа, мм.
S - Снежный покров - Высота снежного покрова, см. При наведении курсора мыши на число - состояние снежного покрова и степень покрытия местности в баллах.